Snowfall_Accumulation
0.0 0.0 0.0 0.0 0.0 0.0 0.0 0.0 0.0 0.0 0.0 0.0 0.0 0.0 0.0 0.0 0.0 0.0 0.0 0.0 0.0 0.0 0.0 0.0 0.0 0.0 0.0 0.0 0.0 0.0 0.0 0.0 0.0 0.0 0.0 0.0 0.0 0.0 0.0 0.0 0.0 0.0 0.0
0.0 0.0 0.1 0.1 0.0 0.0 0.0 0.0 0.0 0.0 0.0 0.0 0.0 0.0 0.0 0.0 0.0 0.0 0.0 0.0 0.0 0.0 0.0 0.0 0.0 0.0 0.0 0.0 0.0 0.0 0.0 0.0 0.0 0.0 0.0 0.0 0.0 0.0 0.0 0.0 0.0 0.0 0.0
0.0 0.1 0.2 0.2 0.0 0.0 0.0 0.0 0.0 0.0 0.0 0.0 0.0 0.0 0.0 0.0 0.0 0.0 0.0 0.0 0.0 0.0 0.0 0.0 0.0 0.0 0.0 0.0 0.0 0.0 0.0 0.0 0.0 0.0 0.0 0.0 0.0 0.0 0.1 0.0 0.0 0.0 0.0
0.3 0.3 0.1 0.0 0.0 0.0 0.0 0.0 0.0 0.0 0.0 0.0 0.0 0.0 0.0 0.0 0.0 0.0 0.0 0.0 0.0 0.0 0.0 0.0 0.0 0.0 0.0 0.0 0.0 0.0 0.0 0.0 0.1 0.1 0.1 0.1 0.1 0.1 0.1 0.1 0.2 0.2 0.1
0.7 0.2 0.1 0.0 0.0 0.0 0.0 0.0 0.0 0.0 0.0 0.0 0.0 0.0 0.0 0.0 0.0 0.0 0.0 0.0 0.0 0.0 0.0 0.0 0.0 0.0 nan nan 0.0 0.0 0.0 0.1 0.2 0.2 0.2 0.2 0.2 0.3 0.3 0.2 0.3 0.2 0.2
0.2 0.1 0.0 0.0 0.0 0.0 0.0 0.0 0.0 0.0 0.0 0.0 0.0 0.0 0.0 0.0 nan nan 0.0 0.0 0.0 0.0 0.0 0.0 0.0 0.0 0.0 nan nan nan nan 0.0 0.1 0.3 0.2 0.2 0.0 0.2 0.3 0.4 0.6 1.5 3.4
0.0 0.0 0.0 0.0 0.0 0.0 0.0 0.0 0.0 0.0 0.0 0.0 0.0 0.0 0.0 0.0 nan nan nan 0.0 0.0 0.0 0.0 0.0 0.0 0.0 0.0 0.0 nan nan nan nan nan 0.0 0.1 0.1 0.3 0.3 0.1 0.3 0.8 1.7 1.7
0.0 0.0 0.0 0.0 0.0 0.0 0.0 0.0 0.0 0.0 0.0 0.0 0.0 0.0 0.0 0.0 nan nan nan 0.0 0.0 0.0 0.0 0.0 0.0 0.0 0.0 0.0 0.0 0.1 0.0 0.0 0.0 0.0 0.0 0.0 0.0 0.1 0.2 0.6 1.1 1.2 2.8
0.0 0.0 0.0 0.0 0.1 0.1 0.1 0.0 0.0 0.0 0.0 0.0 0.0 0.0 0.0 0.0 nan nan 0.0 0.0 0.0 0.0 0.0 0.0 0.0 0.0 nan nan 0.2 0.2 0.1 0.0 nan nan nan nan nan nan nan 2.5 10.0 14.0 9.9
0.0 0.0 0.0 0.0 0.1 0.1 0.0 0.1 0.1 0.0 0.0 0.4 0.0 0.0 0.0 0.0 nan nan nan 0.2 0.0 0.3 0.0 0.0 0.0 0.0 nan nan 0.2 0.5 1.1 0.5 0.6 1.5 1.0 0.8 nan nan nan 0.7 3.0 12.7 9.7
0.0 0.1 0.1 0.1 0.1 0.1 0.1 0.1 0.1 0.1 0.1 0.1 0.1 0.1 0.1 0.0 0.0 nan nan 0.1 0.5 1.1 1.0 0.9 0.6 nan nan nan nan 1.0 1.1 0.4 1.5 1.9 2.2 2.7 2.0 1.6 2.1 1.8 1.6 4.0 10.5
0.2 0.2 0.3 0.7 0.3 0.2 0.9 0.3 0.6 0.2 0.4 0.3 0.5 0.8 0.9 0.1 nan nan nan nan nan 1.3 0.9 0.7 0.6 nan nan nan 0.9 nan nan 1.4 4.5 5.4 4.7 4.2 3.6 3.6 3.5 3.9 2.7 3.1 3.5
1.7 2.8 2.1 1.5 1.3 0.8 1.2 0.6 2.1 0.6 1.7 0.6 2.0 2.0 1.6 1.5 1.2 nan nan nan nan 1.3 1.0 1.1 nan nan nan nan nan nan 0.8 5.4 5.9 7.8 5.8 4.6 3.8 3.6 4.4 6.4 4.9 3.9 3.9
4.2 2.2 1.3 1.6 0.9 1.1 2.0 2.1 2.9 2.7 2.6 2.7 3.3 3.3 2.4 2.5 1.6 1.4 2.3 1.4 0.9 2.6 nan 2.5 nan 2.0 nan nan 2.3 2.9 3.7 4.7 4.8 6.3 7.1 5.5 5.5 8.1 8.4 5.9 7.2 6.2 10.2
3.2 1.6 1.3 2.1 2.3 1.6 1.6 2.5 2.2 0.9 2.3 5.3 6.5 5.2 7.1 6.7 3.7 1.5 4.6 5.2 4.7 5.1 4.9 7.2 6.5 5.3 5.5 4.9 5.6 5.9 5.6 5.8 6.9 7.3 8.4 9.0 9.6 8.9 8.0 6.2 6.9 8.3 10.8
2.4 3.3 2.9 2.9 2.6 2.4 2.6 2.9 nan nan nan nan nan 4.0 5.6 nan nan nan nan nan nan nan 12.0 12.8 7.5 6.1 6.0 6.3 8.2 8.4 8.3 7.6 7.8 9.1 10.5 9.9 11.3 10.2 10.0 10.2 9.4 10.3 11.8
5.5 4.2 5.0 4.3 3.9 4.0 3.9 4.3 6.8 3.7 nan nan nan nan nan nan nan nan nan nan nan nan 19.1 10.9 10.0 7.9 8.3 8.5 9.3 8.7 10.6 8.9 7.3 10.1 10.1 10.7 11.6 12.0 12.7 11.7 10.2 9.4 12.5
5.2 2.1 4.9 4.6 4.2 4.6 4.8 4.9 5.3 7.5 8.9 6.7 nan nan nan nan nan nan nan nan 19.5 nan 13.8 17.1 16.8 14.7 13.5 12.6 11.2 11.8 12.1 11.8 11.0 10.4 10.7 13.3 15.2 16.4 16.3 15.8 12.4 14.8 14.5
6.8 5.2 5.7 5.4 4.9 5.2 5.7 5.3 5.4 6.3 7.0 9.4 10.0 9.4 4.5 nan nan nan nan 14.3 18.9 17.2 17.0 17.1 14.5 15.5 14.5 15.1 14.6 15.8 14.4 15.7 14.5 17.2 17.2 18.2 17.0 18.2 18.5 14.4 13.2 8.3 9.2
8.1 3.7 5.9 9.1 8.5 7.6 6.0 8.1 8.2 8.8 10.3 11.6 11.7 10.6 13.2 13.2 17.6 17.2 15.0 19.8 20.9 19.4 17.4 18.4 18.3 20.3 22.0 21.1 20.6 19.4 20.4 21.5 20.1 19.7 19.3 19.1 18.3 19.1 16.5 19.5 17.6 17.0 17.3
13.9 12.3 3.3 12.1 13.7 14.1 14.3 12.8 11.7 14.7 13.2 14.5 12.3 11.5 nan 17.5 19.5 19.8 19.9 20.1 21.6 23.1 20.2 20.9 22.0 27.0 27.5 29.7 26.5 26.1 24.8 18.3 20.8 22.0 22.7 22.7 22.4 29.8 17.9 14.7 19.1 19.7 19.3
16.9 17.2 17.0 18.3 14.7 15.6 17.3 14.3 15.1 15.2 15.1 14.1 12.2 12.5 nan 17.0 18.3 18.8 21.5 24.8 28.6 29.7 30.6 34.1 33.1 34.5 32.0 30.9 28.7 27.1 24.0 25.9 26.6 25.5 22.0 22.9 25.9 24.6 23.0 18.9 19.2 17.6 20.3
16.2 15.4 16.2 16.4 16.1 7.5 17.6 19.5 18.7 18.4 18.0 19.3 18.0 19.4 21.1 23.0 22.8 23.6 28.9 31.2 27.9 27.2 29.0 30.3 29.0 28.7 27.0 28.8 26.2 25.6 27.1 27.8 27.5 31.9 27.7 27.1 26.7 28.3 25.5 24.0 21.8 24.3 22.8
15.6 15.6 15.6 19.1 18.4 17.4 19.6 20.5 18.8 7.3 19.8 21.2 28.0 25.2 19.8 22.6 28.2 24.1 24.4 27.0 24.3 32.2 26.5 27.5 24.8 24.4 25.2 31.2 35.6 34.8 36.4 37.4 36.8 34.8 32.9 27.9 26.6 21.8 24.2 26.0 21.9 20.7 19.7
19.7 18.7 18.6 17.8 22.7 20.6 19.7 22.4 19.3 23.7 25.8 22.6 24.8 21.0 21.7 20.3 21.0 25.7 24.7 22.1 23.9 22.5 20.8 20.5 20.7 21.0 21.4 22.2 27.0 31.0 29.0 4.9 20.7 5.3 31.2 25.3 27.8 27.7 27.3 24.2 22.9 21.7 19.5
17.6 18.8 19.5 19.9 19.8 20.8 21.1 20.7 21.1 18.6 21.5 22.1 21.1 21.4 19.5 19.6 19.2 20.9 20.0 20.3 17.9 18.5 19.0 20.2 20.2 18.6 17.9 19.1 19.8 7.5 4.6 4.2 26.0 4.6 28.2 26.7 28.3 26.6 26.1 26.1 24.6 24.0 20.8
Water_Equivalent
0.00 0.00 0.00 0.00 0.00 0.00 0.00 0.00 0.00 0.00 0.00 0.00 0.00 0.00 0.00 0.00 0.00 0.00 0.00 0.00 0.00 0.00 0.00 0.00 0.00 0.00 0.00 0.00 0.00 0.00 0.00 0.00 0.00 0.00 0.00 0.00 0.00 0.00 0.00 0.00 0.00 0.00 0.00
0.00 0.00 0.03 0.03 0.00 0.00 0.00 0.00 0.00 0.00 0.00 0.00 0.00 0.00 0.00 0.00 0.00 0.00 0.00 0.00 0.00 0.00 0.00 0.00 0.00 0.00 0.00 0.00 0.00 0.00 0.00 0.00 0.00 0.00 0.00 0.00 0.00 0.00 0.00 0.00 0.00 0.00 0.00
0.01 0.04 0.10 0.07 0.02 0.00 0.00 0.00 0.00 0.00 0.00 0.00 0.00 0.00 0.00 0.00 0.00 0.00 0.00 0.00 0.00 0.00 0.00 0.00 0.00 0.00 0.00 0.00 0.00 0.00 0.00 0.00 0.00 0.01 0.01 0.00 0.01 0.01 0.02 0.01 0.00 0.00 0.00
0.09 0.06 0.02 0.01 0.01 0.00 0.00 0.00 0.00 0.00 0.00 0.00 0.00 0.00 0.00 0.00 0.00 0.00 0.00 0.00 0.00 0.00 0.00 0.00 0.00 0.00 0.00 0.00 0.00 0.00 0.00 0.01 0.02 0.04 0.05 0.04 0.04 0.05 0.05 0.06 0.09 0.06 0.06
0.12 0.03 0.02 0.01 0.00 0.00 0.00 0.00 0.00 0.00 0.00 0.00 0.00 0.00 0.00 0.00 0.00 0.00 0.00 0.00 0.00 0.00 0.00 0.00 0.00 0.00 nan nan 0.00 0.00 0.00 0.02 0.07 0.07 0.07 0.06 0.06 0.10 0.09 0.08 0.12 0.08 0.06
0.03 0.02 0.00 0.01 0.00 0.00 0.00 0.00 0.00 0.00 0.00 0.00 0.00 0.00 0.00 0.00 nan nan 0.00 0.00 0.00 0.00 0.00 0.00 0.00 0.00 0.00 nan nan nan nan 0.00 0.01 0.11 0.08 0.06 0.00 0.08 0.10 0.13 0.17 0.32 0.49
0.00 0.00 0.00 0.00 0.00 0.00 0.00 0.00 0.00 0.00 0.00 0.00 0.00 0.00 0.00 0.00 nan nan nan 0.00 0.00 0.00 0.00 0.00 0.00 0.00 0.01 0.00 nan nan nan nan nan 0.00 0.01 0.03 0.03 0.03 0.01 0.05 0.12 0.30 0.31
0.00 0.00 0.01 0.01 0.01 0.01 0.01 0.01 0.01 0.00 0.00 0.00 0.00 0.00 0.00 0.00 nan nan nan 0.00 0.00 0.00 0.00 0.00 0.00 0.00 0.00 0.00 0.00 0.01 0.00 0.00 0.00 0.00 0.00 0.01 0.00 0.01 0.03 0.09 0.16 0.18 0.44
0.00 0.00 0.01 0.01 0.02 0.02 0.02 0.01 0.01 0.01 0.01 0.00 0.00 0.00 0.00 0.00 nan nan 0.00 0.00 0.00 0.00 0.00 0.00 0.00 0.00 nan nan 0.03 0.03 0.02 0.01 nan nan nan nan nan nan nan 0.56 2.01 2.60 1.53
0.00 0.00 0.01 0.01 0.02 0.02 0.01 0.02 0.02 0.01 0.01 0.13 0.01 0.01 0.00 0.00 nan nan nan 0.09 0.01 0.12 0.01 0.00 0.01 0.00 nan nan 0.03 0.08 0.18 0.09 0.10 0.37 0.18 0.15 nan nan nan 0.13 0.60 2.04 1.46
0.01 0.01 0.02 0.02 0.03 0.02 0.02 0.02 0.03 0.02 0.02 0.04 0.04 0.02 0.02 0.01 0.01 nan nan 0.05 0.17 0.29 0.28 0.24 0.15 nan nan nan nan 0.16 0.16 0.06 0.26 0.35 0.41 0.56 0.41 0.31 0.46 0.35 0.27 0.65 1.43
0.04 0.04 0.07 0.15 0.07 0.04 0.22 0.09 0.17 0.07 0.10 0.08 0.11 0.20 0.25 0.02 nan nan nan nan nan 0.34 0.20 0.18 0.15 nan nan nan 0.25 nan nan 0.35 1.03 1.17 0.99 0.80 0.62 0.58 0.54 0.57 0.32 0.43 0.52
0.30 0.51 0.41 0.31 0.27 0.18 0.30 0.15 0.51 0.15 0.39 0.12 0.43 0.42 0.34 0.35 0.33 nan nan nan nan 0.34 0.25 0.23 nan nan nan nan nan nan 0.27 1.00 1.19 1.48 0.98 0.69 0.52 0.47 0.44 0.65 0.47 0.39 0.39
0.80 0.35 0.21 0.29 0.19 0.21 0.45 0.48 0.69 0.58 0.51 0.55 0.67 0.65 0.47 0.48 0.34 0.35 0.60 0.37 0.26 0.61 nan 0.53 nan 0.41 nan nan 0.55 0.57 0.72 0.81 0.80 0.96 0.96 0.69 0.68 0.95 0.94 0.67 0.87 0.75 1.25
0.49 0.22 0.23 0.41 0.45 0.29 0.30 0.52 0.44 0.18 0.50 1.09 1.39 1.02 1.29 1.22 0.72 0.32 1.02 1.18 1.08 1.10 1.22 1.52 1.29 0.95 0.95 0.84 1.01 1.01 0.96 0.95 1.08 1.08 1.13 1.13 1.15 1.08 0.97 0.77 0.83 1.08 1.35
0.30 0.49 0.48 0.50 0.44 0.39 0.41 0.45 nan nan nan nan nan 0.83 1.26 nan nan nan nan nan nan nan 2.74 2.57 1.25 1.00 0.89 0.94 1.20 1.12 1.08 1.11 1.01 1.18 1.34 1.29 1.38 1.20 1.17 1.30 1.22 1.33 1.42
0.70 0.47 0.65 0.56 0.52 0.58 0.61 0.68 0.88 0.64 nan nan nan nan nan nan nan nan nan nan nan nan 4.07 1.94 1.62 1.16 1.17 1.12 1.19 1.11 1.23 1.05 0.76 1.22 1.17 1.27 1.40 1.51 1.65 1.44 1.25 1.16 1.64
0.67 0.68 0.71 0.67 0.65 0.71 0.76 0.79 0.86 1.07 1.22 0.96 nan nan nan nan nan nan nan nan 3.82 nan 2.83 2.99 2.56 2.10 1.73 1.60 1.36 1.37 1.37 1.32 1.24 1.23 1.29 1.74 2.05 2.20 2.12 2.09 1.60 1.97 1.88
0.79 0.65 0.73 0.72 0.68 0.75 0.83 0.74 0.81 0.85 0.89 1.16 1.17 1.24 1.03 nan nan nan nan 2.46 3.18 2.75 2.70 2.77 2.32 2.23 1.85 1.98 1.87 2.10 1.80 1.92 1.79 2.33 2.37 2.55 2.37 2.53 2.54 1.89 1.62 1.44 1.52
0.87 0.93 0.86 1.12 1.02 0.91 0.66 0.87 0.83 0.89 1.03 1.19 1.22 1.10 1.83 2.12 2.81 2.84 2.37 3.34 3.37 2.99 2.55 2.75 2.76 3.11 3.29 3.08 2.99 2.75 2.82 3.01 2.74 2.75 2.70 2.67 2.55 2.75 2.02 2.63 2.34 2.07 2.32
1.48 1.24 1.08 1.18 1.43 1.48 1.52 1.27 1.11 1.50 1.31 1.50 1.23 1.16 nan 2.21 2.31 2.48 2.81 2.66 3.08 3.34 2.76 2.98 3.15 4.11 4.26 4.72 3.96 3.82 3.53 2.30 2.82 3.06 3.24 3.23 3.16 4.06 2.47 1.81 2.49 2.64 2.57
1.71 1.77 1.75 1.90 1.37 1.49 1.75 1.32 1.43 1.47 1.43 1.30 1.09 1.22 nan 1.69 1.90 1.97 2.23 2.82 3.45 3.59 4.09 4.76 4.65 5.05 4.49 4.23 3.82 3.59 3.01 3.43 3.68 3.44 2.80 2.95 3.48 3.11 3.08 2.29 2.39 2.13 2.69
1.50 1.33 1.45 1.47 1.44 1.59 1.66 1.97 1.80 1.78 1.68 1.87 1.71 1.77 1.98 2.43 2.28 2.29 3.20 3.53 2.93 2.80 3.16 3.41 3.23 3.14 2.98 3.32 2.97 2.88 3.04 3.27 3.33 4.35 3.15 3.20 3.11 3.54 3.21 2.94 2.64 2.97 2.85
1.35 1.37 1.37 1.85 1.69 1.50 1.79 1.91 1.68 1.68 1.82 2.00 3.04 2.57 1.73 2.15 2.96 2.25 2.33 2.75 2.33 3.74 2.74 2.92 2.47 2.42 2.62 3.85 4.84 4.73 5.11 5.36 5.13 4.72 4.27 3.05 2.95 2.56 2.63 3.06 2.47 2.38 2.07
1.79 1.58 1.60 1.50 2.25 1.86 1.74 2.12 1.61 2.22 2.57 2.10 2.49 1.89 1.93 1.77 1.92 2.70 2.53 2.11 2.37 2.19 1.93 1.90 1.98 2.05 2.11 2.23 3.04 3.89 4.08 1.61 3.03 1.74 3.75 2.69 3.12 3.15 3.02 2.61 2.46 2.20 1.97
1.46 1.58 1.65 1.71 1.69 1.86 1.95 1.91 1.99 1.61 2.02 2.15 1.99 2.04 1.76 1.76 1.76 2.10 1.95 1.97 1.61 1.70 1.78 1.95 1.95 1.75 1.65 1.85 1.96 1.84 1.53 1.38 3.24 1.53 3.07 2.61 2.89 2.62 2.57 2.61 2.43 2.36 1.97
SL_Ratio
nan nan nan nan nan nan nan nan nan nan 5.0 5.0 nan nan nan nan nan nan nan nan nan nan nan nan nan nan nan nan nan nan nan nan nan nan nan nan nan nan nan nan nan nan nan
nan nan 2.4 2.5 nan nan nan nan 5.0 5.0 nan nan nan nan nan nan nan nan nan nan nan nan nan nan nan nan nan nan nan nan nan nan nan nan nan nan nan nan nan nan nan nan nan
2.5 2.5 2.5 2.5 2.5 0.0 5.0 5.0 5.7 nan nan nan nan nan nan nan nan nan nan nan nan nan nan nan nan nan nan nan nan nan nan nan nan 3.0 2.5 2.0 2.7 2.5 2.5 2.3 nan nan nan
3.5 4.7 4.5 4.6 5.0 5.0 5.0 5.0 nan nan nan nan nan nan nan nan nan nan nan nan nan nan nan nan nan nan nan nan nan nan nan 2.6 2.7 2.6 2.5 2.5 2.5 2.6 2.5 2.5 2.8 2.5 2.5
6.0 5.9 5.4 2.5 5.0 5.0 5.0 nan nan nan nan nan nan nan nan nan nan nan nan nan nan nan nan nan nan nan nan nan 5.0 2.5 1.7 3.1 2.6 2.7 2.6 2.5 2.5 2.8 3.0 3.0 2.8 2.8 3.1
5.7 6.3 3.6 6.3 6.7 nan nan nan nan nan nan nan nan nan nan nan nan nan nan nan nan nan nan nan nan nan nan nan nan nan nan 5.0 6.9 2.9 2.7 2.9 2.5 2.8 3.3 3.4 3.6 4.7 6.8
3.8 nan nan 0.0 0.0 2.5 2.5 3.8 3.0 nan nan nan nan nan nan nan nan nan nan 1.7 2.5 nan nan nan nan nan 2.4 nan nan nan nan nan nan 0.0 5.0 3.7 10.2 10.5 5.5 6.2 6.8 5.7 5.5
nan nan 2.5 2.7 3.1 3.1 3.1 2.9 2.7 2.5 3.3 nan nan nan nan nan nan nan nan nan nan nan nan nan nan nan nan nan nan 7.4 3.3 2.5 5.0 nan 7.1 7.0 7.5 4.7 5.7 6.3 6.6 6.8 6.3
nan 2.5 2.8 3.2 3.3 3.5 3.8 3.4 2.9 2.9 2.7 3.0 nan 2.5 nan nan nan nan nan nan nan nan nan nan nan nan nan nan 8.4 7.1 5.0 5.4 nan nan nan nan nan nan nan 4.5 4.9 5.4 6.5
0.0 3.0 3.1 3.6 3.8 3.8 3.3 3.8 3.5 2.9 3.2 2.9 2.7 2.7 2.5 2.5 nan nan nan 2.5 3.3 2.7 2.9 2.9 2.7 2.5 nan nan 6.6 6.1 6.4 6.2 5.6 4.1 5.6 5.2 nan nan nan 5.7 4.9 6.2 6.6
3.6 3.9 4.4 4.2 4.3 3.8 4.3 4.2 3.8 3.6 3.6 3.5 3.6 3.2 2.7 2.7 2.5 nan nan 2.6 3.1 3.6 3.6 3.9 3.6 nan nan nan nan 6.4 6.8 6.8 5.7 5.6 5.5 4.9 4.8 5.1 4.6 5.1 6.1 6.1 7.4
5.0 5.0 5.0 4.7 4.3 4.2 4.2 3.9 3.4 3.3 3.7 4.1 4.2 3.9 3.7 3.6 nan nan nan nan nan 3.8 4.6 3.8 3.7 nan nan nan 3.8 nan nan 4.1 4.4 4.6 4.8 5.3 5.9 6.2 6.5 6.9 8.4 7.2 6.7
5.7 5.5 5.1 4.9 4.7 4.4 4.1 4.3 4.1 4.0 4.3 5.1 4.7 4.8 4.8 4.3 3.6 nan nan nan nan 3.9 3.8 4.8 nan nan nan nan nan nan 3.0 5.4 5.0 5.3 6.0 6.7 7.2 7.7 10.2 9.8 10.5 10.1 10.1
5.3 6.4 6.1 5.5 4.6 5.1 4.5 4.3 4.3 4.6 5.0 4.9 4.9 5.1 5.1 5.1 4.6 4.0 3.9 3.7 3.6 4.2 nan 4.6 nan 4.9 nan nan 4.2 5.1 5.2 5.9 6.0 6.6 7.4 8.0 8.0 8.6 9.0 8.8 8.3 8.3 8.2
6.5 7.4 5.6 5.1 5.2 5.6 5.4 4.8 5.0 4.8 4.6 4.9 4.7 5.1 5.6 5.5 5.2 4.6 4.5 4.4 4.3 4.6 4.0 4.7 5.0 5.6 5.8 5.8 5.6 5.8 5.9 6.1 6.4 6.8 7.5 8.0 8.3 8.3 8.3 8.1 8.3 7.7 8.0
8.2 6.8 6.0 5.8 6.0 6.2 6.4 6.4 nan nan nan nan nan 4.8 4.4 nan nan nan nan nan nan nan 4.4 5.0 6.0 6.1 6.8 6.7 6.8 7.5 7.7 6.8 7.7 7.7 7.8 7.7 8.2 8.6 8.6 7.9 7.7 7.8 8.3
7.9 8.9 7.7 7.7 7.5 6.9 6.5 6.2 7.7 5.9 nan nan nan nan nan nan nan nan nan nan nan nan 4.7 5.6 6.2 6.8 7.1 7.6 7.8 7.9 8.7 8.5 9.6 8.3 8.6 8.4 8.3 8.0 7.7 8.1 8.2 8.1 7.6
7.8 3.0 7.0 6.9 6.5 6.5 6.3 6.2 6.1 7.0 7.4 7.0 nan nan nan nan nan nan nan nan 5.1 nan 4.9 5.7 6.6 7.0 7.8 7.9 8.3 8.6 8.8 8.9 8.9 8.4 8.3 7.6 7.4 7.5 7.7 7.5 7.8 7.5 7.7
8.6 8.0 7.8 7.6 7.2 7.0 6.9 7.1 6.7 7.4 7.9 8.1 8.5 7.6 4.3 nan nan nan nan 5.8 6.0 6.2 6.3 6.2 6.3 7.0 7.8 7.6 7.8 7.5 8.0 8.2 8.1 7.4 7.3 7.1 7.2 7.2 7.3 7.6 8.1 5.8 6.0
9.3 4.0 6.9 8.1 8.3 8.4 9.0 9.3 9.9 9.9 10.0 9.7 9.6 9.6 7.2 6.2 6.3 6.1 6.3 5.9 6.2 6.5 6.8 6.7 6.6 6.5 6.7 6.8 6.9 7.1 7.2 7.1 7.3 7.2 7.2 7.2 7.2 7.0 8.2 7.4 7.5 8.2 7.5
9.4 9.9 3.0 10.2 9.6 9.5 9.5 10.0 10.6 9.8 10.1 9.6 10.0 9.8 nan 7.9 8.4 8.0 7.1 7.6 7.0 6.9 7.3 7.0 7.0 6.6 6.5 6.3 6.7 6.8 7.0 8.0 7.4 7.2 7.0 7.0 7.1 7.3 7.2 8.1 7.6 7.5 7.5
9.9 9.7 9.7 9.7 10.7 10.5 9.9 10.8 10.5 10.4 10.6 10.9 11.2 10.2 nan 10.0 9.7 9.6 9.6 8.8 8.3 8.3 7.5 7.2 7.1 6.8 7.1 7.3 7.5 7.6 8.0 7.5 7.2 7.4 7.8 7.8 7.4 7.9 7.5 8.2 8.0 8.2 7.6
10.8 11.5 11.2 11.2 11.2 4.7 10.6 9.9 10.3 10.3 10.7 10.3 10.5 11.0 10.6 9.4 10.0 10.3 9.0 8.9 9.5 9.7 9.2 8.9 9.0 9.1 9.1 8.7 8.8 8.9 8.9 8.5 8.2 7.3 8.8 8.5 8.6 8.0 7.9 8.2 8.3 8.2 8.0
11.5 11.4 11.4 10.3 10.9 11.6 10.9 10.7 11.2 4.4 10.9 10.6 9.2 9.8 11.5 10.5 9.5 10.7 10.5 9.8 10.4 8.6 9.7 9.4 10.0 10.1 9.6 8.1 7.4 7.3 7.1 7.0 7.2 7.4 7.7 9.1 9.0 8.5 9.2 8.5 8.9 8.7 9.5
11.1 11.8 11.6 11.9 10.1 11.1 11.3 10.6 11.9 10.6 10.0 10.8 10.0 11.1 11.2 11.5 11.0 9.5 9.8 10.5 10.1 10.3 10.7 10.8 10.5 10.3 10.2 10.0 8.9 8.0 7.1 3.0 6.8 3.0 8.3 9.4 8.9 8.8 9.0 9.3 9.3 9.8 9.9
12.1 11.9 11.8 11.6 11.7 11.2 10.8 10.9 10.7 11.6 10.6 10.3 10.6 10.5 11.1 11.1 10.9 9.9 10.3 10.3 11.1 10.9 10.7 10.3 10.3 10.7 10.8 10.4 10.1 4.1 3.0 3.0 8.0 3.0 9.2 10.2 9.8 10.1 10.1 10.0 10.2 10.2 10.6